Weather History for Ephrata, WA

Change the Weather History Date:

Friday, February 1, 2013

  Actual Average Record
Temperature  
Mean Temperature 33 °F 31 °F  
Max Temperature 45 °F 39 °F 52 °F (1971)
Min Temperature 21 °F 24 °F -24 °F (1950)
Degree Days  
Heating Degree Days 32 34  
Month to date heating degree days 32 34  
Since 1 July heating degree days 3468 3742  
Cooling Degree Days 0 0  
Month to date cooling degree days 0 0  
Year to date cooling degree days 0 0  
Moisture  
Dew Point 27 °F    
Average Humidity 77    
Maximum Humidity 92    
Minimum Humidity 62    
Precipitation  
Precipitation 0.00 in 0.02 in 0.50 in (1975)
Month to date precipitation 0.00 0.02  
Year to date precipitation 0.19 0.93  
Sea Level Pressure  
Sea Level Pressure 30.39 in    
Wind  
Wind Speed 6 mph (NNE)    
Max Wind Speed 12 mph    
Max Gust Speed 13 mph    
Visibility 9 miles    
Events      
T = Trace of Precipitation, MM = Missing Value Source: NWS Daily Summary

Daily Weather History Graph

Daily Weather History Graph

Search for Another Location

Airport:

Trip Planner

Search our weather history database for the weather conditions in past years. The results will help you decide how hot, cold, wet, or windy it might be!

Date:

Astronomy

Feb. 01, 2013 Rise Set
Actual Time 7:23 AM PST 5:00 PM PST
Civil Twilight 6:50 AM PST 5:33 PM PST
Nautical Twilight 6:13 AM PST 6:10 PM PST
Astronomical Twilight 5:38 AM PST 6:46 PM PST
Moon 11:43 PM PST (2/1) 9:31 AM PST (2/1)
Length of Visible Light 10h 42m
Length of Day
9h 37m
Waning Gibbous, 69% of the Moon is Illuminated
Feb 1
Waning Gibbous
Feb 3
Last Quarter
Feb 9
New
Feb 17
First Quarter
Feb 25
Full

Hourly Weather History & Observations

Time (PST) Temp. Windchill Dew Point Humidity Pressure Visibility Wind Dir Wind Speed Gust Speed Precip Events Conditions
12:53 AM 28.0 °F - 27.0 °F 96% 30.24 in 10.0 mi Calm Calm - N/A   Clear
1:53 AM 27.0 °F 20.5 °F 25.0 °F 92% 30.26 in 7.0 mi North 5.8 mph - N/A   Clear
2:53 AM 27.0 °F - 25.0 °F 92% 30.28 in 6.0 mi Calm Calm - N/A   Clear
3:53 AM 26.1 °F 20.5 °F 24.1 °F 92% 30.29 in 5.0 mi NNE 4.6 mph - N/A   Clear
4:53 AM 24.1 °F 17.0 °F 21.9 °F 91% 30.30 in 6.0 mi NNE 5.8 mph - N/A   Clear
5:53 AM 23.0 °F - 19.9 °F 88% 30.33 in 7.0 mi Calm Calm - N/A   Clear
6:53 AM 24.1 °F 18.2 °F 21.9 °F 91% 30.34 in 10.0 mi North 4.6 mph - N/A   Clear
7:53 AM 24.1 °F 17.0 °F 21.9 °F 91% 30.36 in 6.0 mi NNE 5.8 mph - N/A   Clear
8:53 AM 28.9 °F 22.8 °F 27.0 °F 92% 30.38 in 9.0 mi NNE 5.8 mph - N/A   Clear
9:53 AM 33.1 °F 27.7 °F 30.0 °F 89% 30.40 in 10.0 mi NE 5.8 mph - N/A   Clear
10:53 AM 37.0 °F 31.0 °F 30.9 °F 79% 30.40 in 10.0 mi NE 8.1 mph - N/A   Clear
11:53 AM 37.9 °F 32.7 °F 30.9 °F 76% 30.40 in 10.0 mi NNE 6.9 mph - N/A   Clear
1:53 PM 44.1 °F 41.5 °F 32.0 °F 63% 30.40 in 10.0 mi NE 4.6 mph - N/A   Clear
2:53 PM 44.1 °F 38.6 °F 32.0 °F 63% 30.41 in 10.0 mi NNE 10.4 mph - N/A   Clear
3:53 PM 39.9 °F 34.5 °F 30.0 °F 68% 30.42 in 10.0 mi NNE 8.1 mph - N/A   Clear
4:53 PM 35.1 °F 28.6 °F 28.9 °F 78% 30.42 in 10.0 mi North 8.1 mph - N/A   Clear
5:53 PM 32.0 °F 24.2 °F 28.0 °F 85% 30.43 in 10.0 mi North 9.2 mph - N/A   Clear
6:53 PM 33.1 °F 25.5 °F 28.0 °F 82% 30.45 in 10.0 mi North 9.2 mph - N/A   Clear
7:53 PM 30.0 °F 22.4 °F 27.0 °F 88% 30.47 in 10.0 mi NNE 8.1 mph - N/A   Clear
8:53 PM 30.0 °F 22.4 °F 27.0 °F 88% 30.47 in 10.0 mi NNE 8.1 mph - N/A   Clear
9:53 PM 28.9 °F 21.1 °F 26.1 °F 89% 30.49 in 10.0 mi NNE 8.1 mph - N/A   Clear
10:53 PM 28.0 °F 21.7 °F 25.0 °F 88% 30.48 in 10.0 mi North 5.8 mph - N/A   Clear
11:53 PM 27.0 °F 21.6 °F 24.1 °F 89% 30.49 in 10.0 mi North 4.6 mph - N/A   Clear